Location: Sevilla
(37.3933°N, 5.9839°W)
Time: 04:30:35
(UTC+02:00)

Vanguard 3 - Pass Details

Date: 01 July 2024
Orbit: 508 x 3231 km, 33.4° (Epoch: 15 July)

Event Time Altitude Azimuth Distance (km) Brightness Sun altitude
Rises 04:05:35 0° 181° (S) 7,009 - -25.3°
Exits shadow 04:13:04 - 163° (SSE) 6,274 11.2 -24.7°
Reaches altitude 10° 04:14:39 10° 159° (SSE) 6,151 11.2 -24.5°
Maximum altitude 04:22:05 13° 136° (SE) 5,788 11.3 -23.8°
Drops below altitude 10° 04:29:07 10° 113° (ESE) 5,842 11.6 -23.1°
Sets 04:36:56 0° 91° (E) 6,404 12.1 -22.3°
